,,Stat1,,Stat2,,Stat3,,Stat4,,Wind1,,Wind1,
time,status,PR1M_SUM,status,RH1M_AVG,status,SR1M_AVG,status,TA1M_AVG,status,W1dAve1m,status,W1sAve1m,
1999-09-18, 00:01:00,VALID,0,VALID,100,VALID,-0.0849042,VALID,19.0861,VALID,61,VALID,0.694169,
1999-09-18, 00:02:00,VALID,0,VALID,100,VALID,-0.0679233,VALID,19.0762,VALID,347,VALID,0.764648,
1999-09-18, 00:03:00,VALID,0,VALID,100,VALID,-0.0339617,VALID,19.0956,VALID,305,VALID,0.750217,
1999-09-18, 00:04:00,VALID,0,VALID,100,VALID,-0.0679233,VALID,19.0988,VALID,320,VALID,0.683594,
1999-09-18, 00:05:00,VALID,0,VALID,100,VALID,-0.0679233,VALID,19.0893,VALID,316,VALID,0.442023,
1999-09-18, 00:06:00,VALID,0.2,VALID,100,VALID,-0.101885,VALID,19.1027,VALID,311,VALID,0.476758,
1999-09-18, 00:07:00,VALID,0,VALID,100,VALID,-0.0849042,VALID,19.1087,VALID,314,VALID,0.415402,
1999-09-18, 00:08:00,VALID,0,VALID,100,VALID,-0.0679233,VALID,19.1157,VALID,295,VALID,0.615748,
1999-09-18, 00:09:00,VALID,0,VALID,100,VALID,-0.0679233,VALID,19.1284,VALID,294,VALID,0.0367759,
1999-09-18, 00:10:01,VALID,0,VALID,100,VALID,-0.0849042,VALID,19.1311,VALID,59,VALID,0.265425,
1999-09-18, 00:11:00,VALID,0,VALID,100,VALID,-0.101885,VALID,19.1475,VALID,97,VALID,0.531467,
1999-09-18, 00:12:00,VALID,0,VALID,100,VALID,-0.0679233,VALID,19.1706,VALID,75,VALID,0.100946,
1999-09-18, 00:13:00,VALID,0,VALID,100,VALID,-0.0849042,VALID,19.1575,VALID,90,VALID,0,
1999-09-18, 00:14:00,VALID,0,VALID,100,VALID,-0.0849042,VALID,19.1483,VALID,211,VALID,0,
1999-09-18, 00:15:00,VALID,0,VALID,100,VALID,-0.0679233,VALID,19.1512,VALID,212,VALID,0,
1999-09-18, 00:16:00,VALID,0,VALID,100,VALID,-0.101885,VALID,19.1512,VALID,111,VALID,0.746094,
1999-09-18, 00:17:00,VALID,0,VALID,100,VALID,-0.101885,VALID,19.1508,VALID,97,VALID,1.34375,
1999-09-18, 00:18:00,VALID,0,VALID,100,VALID,-0.0679233,VALID,19.1572,VALID,95,VALID,1.3293,
1999-09-18, 00:19:00,VALID,0.2,VALID,100,VALID,-0.0849042,VALID,19.1542,VALID,100,VALID,1.7502,
1999-09-18, 00:20:00,VALID,0,VALID,100,VALID,-0.0849042,VALID,19.1545,VALID,94,VALID,1.28372,
1999-09-18, 00:21:00,VALID,0,VALID,100,VALID,-0.101885,VALID,19.1443,VALID,99,VALID,1.68535,
1999-09-18, 00:22:00,VALID,0,VALID,100,VALID,-0.101885,VALID,19.1314,VALID,97,VALID,1.7704,
1999-09-18, 00:23:00,VALID,0,VALID,100,VALID,-0.101885,VALID,19.1316,VALID,93,VALID,2.05695,
1999-09-18, 00:24:00,VALID,0,VALID,100,VALID,-0.101885,VALID,19.106,VALID,95,VALID,2.29215,
1999-09-18, 00:25:00,VALID,0,VALID,100,VALID,-0.0849042,VALID,19.0572,VALID,85,VALID,2.00658,
1999-09-18, 00:26:00,VALID,0,VALID,100,VALID,-0.101885,VALID,19.0281,VALID,90,VALID,1.74935,
1999-09-18, 00:27:00,VALID,0,VALID,100,VALID,-0.101885,VALID,18.9859,VALID,80,VALID,2.18945,
1999-09-18, 00:28:00,VALID,0,VALID,100,VALID,-0.0679233,VALID,18.9344,VALID,68,VALID,1.83984,
1999-09-18, 00:29:00,VALID,0,VALID,100,VALID,-0.0849042,VALID,18.8857,VALID,82,VALID,1.95078,
1999-09-18, 00:30:00,VALID,0,VALID,100,VALID,-0.0679233,VALID,18.8628,VALID,90,VALID,2.37151,
1999-09-18, 00:31:01,VALID,0,VALID,100,VALID,-0.0679233,VALID,18.8046,VALID,79,VALID,1.53289,
1999-09-18, 00:32:00,VALID,0,VALID,100,VALID,-0.0339617,VALID,18.727,VALID,84,VALID,2.42652,
1999-09-18, 00:33:00,VALID,0,VALID,100,VALID,-0.0509425,VALID,18.6374,VALID,86,VALID,1.41758,
1999-09-18, 00:34:00,VALID,0,VALID,100,VALID,-0.0849042,VALID,18.6372,VALID,91,VALID,1.16827,
1999-09-18, 00:35:00,VALID,0,VALID,100,VALID,-0.101885,VALID,18.621,VALID,85,VALID,2.14412,
1999-09-18, 00:36:00,VALID,0,VALID,100,VALID,-0.0849042,VALID,18.5952,VALID,86,VALID,1.83477,
1999-09-18, 00:37:00,VALID,0,VALID,100,VALID,-0.0849042,VALID,18.5626,VALID,91,VALID,1.5549,
1999-09-18, 00:38:00,VALID,0,VALID,100,VALID,-0.0849042,VALID,18.5592,VALID,88,VALID,1.40851,
1999-09-18, 00:39:00,VALID,0,VALID,100,VALID,-0.118866,VALID,18.5393,VALID,86,VALID,1.64905,
1999-09-18, 00:40:00,VALID,0,VALID,100,VALID,-0.0679233,VALID,18.5171,VALID,93,VALID,1.64063,
1999-09-18, 00:41:00,VALID,0,VALID,100,VALID,-0.118866,VALID,18.5176,VALID,81,VALID,1.21094,
1999-09-18, 00:42:00,VALID,0.2,VALID,100,VALID,-0.101885,VALID,18.4982,VALID,23,VALID,0.75,
1999-09-18, 00:43:01,VALID,0,VALID,100,VALID,-0.101885,VALID,18.4853,VALID,81,VALID,0.861719,
1999-09-18, 00:44:00,VALID,0,VALID,100,VALID,-0.0849042,VALID,18.4818,VALID,69,VALID,1.26406,
1999-09-18, 00:45:00,VALID,0,VALID,100,VALID,-0.101885,VALID,18.453,VALID,81,VALID,1.43503,
1999-09-18, 00:46:00,VALID,0,VALID,100,VALID,-0.101885,VALID,18.434,VALID,76,VALID,1.59087,
1999-09-18, 00:47:00,VALID,0,VALID,100,VALID,-0.0849042,VALID,18.4301,VALID,78,VALID,1.38999,
1999-09-18, 00:48:00,VALID,0,VALID,100,VALID,-0.0849042,VALID,18.4109,VALID,85,VALID,1.49082,
1999-09-18, 00:49:00,VALID,0,VALID,100,VALID,-0.101885,VALID,18.395,VALID,82,VALID,0.80008,
1999-09-18, 00:50:00,VALID,0,VALID,100,VALID,-0.0849042,VALID,18.392,VALID,101,VALID,0.816406,
1999-09-18, 00:51:00,VALID,0,VALID,100,VALID,-0.0849042,VALID,18.3913,VALID,106,VALID,0.616016,
1999-09-18, 00:52:00,VALID,0,VALID,100,VALID,0,VALID,18.3941,VALID,102,VALID,0.759332,
1999-09-18, 00:53:00,VALID,0,VALID,100,VALID,0.0339617,VALID,18.3865,VALID,123,VALID,1.04831,
1999-09-18, 00:54:01,VALID,0,VALID,100,VALID,0.0339617,VALID,18.3865,VALID,126,VALID,1.00432,
1999-09-18, 00:55:00,VALID,0,VALID,100,VALID,0,VALID,18.3772,VALID,129,VALID,1.04688,
1999-09-18, 00:56:00,VALID,0,VALID,100,VALID,0,VALID,18.371,VALID,133,VALID,0.836155,
1999-09-18, 00:57:00,VALID,0,VALID,100,VALID,0.0339617,VALID,18.3613,VALID,123,VALID,0.726997,
1999-09-18, 00:58:00,VALID,0,VALID,100,VALID,0.0169808,VALID,18.3615,VALID,122,VALID,0.667383,
1999-09-18, 00:59:00,VALID,0,VALID,100,VALID,0.0169808,VALID,18.3484,VALID,95,VALID,0.498828,
1999-09-18, 01:00:00,VALID,0,VALID,100,VALID,0.0339617,VALID,18.3742,VALID,98,VALID,0.401933,
1999-09-18, 01:01:00,VALID,0,VALID,100,VALID,0.0169808,VALID,18.3807,VALID,95,VALID,0.323191,
1999-09-18, 01:02:00,VALID,0,VALID,100,VALID,0,VALID,18.3871,VALID,94,VALID,0.393159,
1999-09-18, 01:03:00,VALID,0,VALID,100,VALID,0.0339617,VALID,18.3902,VALID,77,VALID,0.321875,
1999-09-18, 01:04:00,VALID,0,VALID,100,VALID,0.0339617,VALID,18.3874,VALID,71,VALID,0.403245,
1999-09-18, 01:05:01,VALID,0,VALID,100,VALID,0,VALID,18.3936,VALID,90,VALID,0.253084,
1999-09-18, 01:06:00,VALID,0,VALID,100,VALID,0.0339617,VALID,18.4001,VALID,90,VALID,0.344141,
1999-09-18, 01:07:00,VALID,0.2,VALID,100,VALID,0.0339617,VALID,18.3708,VALID,90,VALID,0.326172,
1999-09-18, 01:08:00,VALID,0,VALID,100,VALID,0,VALID,18.3708,VALID,92,VALID,0.346423,
1999-09-18, 01:09:00,VALID,0,VALID,100,VALID,0.0169808,VALID,18.3839,VALID,100,VALID,0.256785,
1999-09-18, 01:10:00,VALID,0,VALID,100,VALID,0,VALID,18.3941,VALID,100,VALID,0.296258,
1999-09-18, 01:11:00,VALID,0,VALID,100,VALID,0.0169808,VALID,18.3871,VALID,100,VALID,0.00737847,
1999-09-18, 01:12:00,VALID,0,VALID,100,VALID,0.0169808,VALID,18.3906,VALID,95,VALID,0,
1999-09-18, 01:13:00,VALID,0,VALID,100,VALID,0,VALID,18.3611,VALID,100,VALID,0.0607422,
1999-09-18, 01:14:00,VALID,0,VALID,100,VALID,0.0339617,VALID,18.3615,VALID,95,VALID,0.753125,
1999-09-18, 01:15:00,VALID,0,VALID,100,VALID,0,VALID,18.3553,VALID,91,VALID,0.504112,
1999-09-18, 01:16:01,VALID,0,VALID,100,VALID,0,VALID,18.3553,VALID,91,VALID,0.35259,
1999-09-18, 01:17:00,VALID,0.2,VALID,100,VALID,0,VALID,18.3391,VALID,84,VALID,0.338471,
1999-09-18, 01:18:00,VALID,0,VALID,100,VALID,0.0339617,VALID,18.3324,VALID,81,VALID,0.305469,
1999-09-18, 01:19:00,VALID,0,VALID,100,VALID,0.0169808,VALID,18.3195,VALID,81,VALID,0.398638,
1999-09-18, 01:20:00,VALID,0,VALID,100,VALID,0.0339617,VALID,18.313,VALID,83,VALID,0.467516,
1999-09-18, 01:21:00,VALID,0,VALID,100,VALID,0,VALID,18.319,VALID,93,VALID,0.421484,
1999-09-18, 01:22:00,VALID,0,VALID,100,VALID,-0.0169808,VALID,18.3458,VALID,93,VALID,0.502387,
1999-09-18, 01:23:00,VALID,0,VALID,100,VALID,-0.0169808,VALID,18.3421,VALID,75,VALID,0.5294,
1999-09-18, 01:24:00,VALID,0,VALID,100,VALID,0,VALID,18.3331,VALID,44,VALID,0.532072,
1999-09-18, 01:25:00,VALID,0.2,VALID,100,VALID,-0.0169808,VALID,18.3167,VALID,359,VALID,0.589844,
1999-09-18, 01:26:01,VALID,0,VALID,100,VALID,-0.0339617,VALID,18.3195,VALID,323,VALID,0.459852,
1999-09-18, 01:27:01,VALID,0,VALID,100,VALID,0.0169808,VALID,18.323,VALID,309,VALID,0.519748,
1999-09-18, 01:28:00,VALID,0,VALID,100,VALID,0,VALID,18.323,VALID,290,VALID,0.294727,
1999-09-18, 01:29:00,VALID,0,VALID,100,VALID,-0.0169808,VALID,18.3329,VALID,254,VALID,0.58457,
1999-09-18, 01:30:00,VALID,0,VALID,100,VALID,0,VALID,18.3322,VALID,236,VALID,0.925987,
1999-09-18, 01:31:00,VALID,0,VALID,100,VALID,-0.0169808,VALID,18.3294,VALID,246,VALID,0.872533,
1999-09-18, 01:32:00,VALID,0,VALID,100,VALID,0,VALID,18.3197,VALID,249,VALID,0.679054,
1999-09-18, 01:33:00,VALID,0,VALID,100,VALID,0,VALID,18.3068,VALID,245,VALID,0.508594,
1999-09-18, 01:34:00,VALID,0.2,VALID,100,VALID,0,VALID,18.3105,VALID,248,VALID,0.563502,
1999-09-18, 01:35:00,VALID,0,VALID,100,VALID,-0.0339617,VALID,18.304,VALID,249,VALID,0.740132,
1999-09-18, 01:36:00,VALID,0,VALID,100,VALID,0,VALID,18.3234,VALID,254,VALID,0.908594,
1999-09-18, 01:37:00,VALID,0,VALID,100,VALID,-0.0169808,VALID,18.3329,VALID,250,VALID,0.890625,
1999-09-18, 01:38:01,VALID,0,VALID,100,VALID,0,VALID,18.3361,VALID,251,VALID,0.746094,
1999-09-18, 01:39:00,VALID,0.2,VALID,100,VALID,-0.0339617,VALID,18.3528,VALID,234,VALID,0.764803,
1999-09-18, 01:40:00,VALID,0,VALID,100,VALID,-0.0339617,VALID,18.3424,VALID,233,VALID,0.770559,
1999-09-18, 01:41:00,VALID,0,VALID,100,VALID,-0.0169808,VALID,18.3493,VALID,231,VALID,0.70204,
1999-09-18, 01:42:00,VALID,0,VALID,100,VALID,-0.0169808,VALID,18.3555,VALID,225,VALID,0.857639,
1999-09-18, 01:43:00,VALID,0,VALID,100,VALID,0,VALID,18.3486,VALID,229,VALID,0.892578,
1999-09-18, 01:44:00,VALID,0,VALID,100,VALID,0,VALID,18.3521,VALID,227,VALID,0.857031,
1999-09-18, 01:45:00,VALID,0,VALID,100,VALID,0,VALID,18.3523,VALID,218,VALID,0.963405,
1999-09-18, 01:46:00,VALID,0,VALID,100,VALID,-0.0169808,VALID,18.3558,VALID,214,VALID,1.20683,
1999-09-18, 01:47:00,VALID,0.2,VALID,100,VALID,-0.0169808,VALID,18.3555,VALID,233,VALID,0.806377,
1999-09-18, 01:48:00,VALID,0,VALID,100,VALID,0,VALID,18.3493,VALID,230,VALID,0.739453,
1999-09-18, 01:49:01,VALID,0,VALID,100,VALID,-0.0169808,VALID,18.3394,VALID,239,VALID,0.771234,
1999-09-18, 01:50:00,VALID,0,VALID,100,VALID,0,VALID,18.3391,VALID,239,VALID,0.795847,
1999-09-18, 01:51:00,VALID,0,VALID,100,VALID,0.0169808,VALID,18.3488,VALID,231,VALID,0.942578,
1999-09-18, 01:52:00,VALID,0,VALID,100,VALID,0,VALID,18.359,VALID,234,VALID,0.784288,
1999-09-18, 01:53:00,VALID,0,VALID,100,VALID,0,VALID,18.3654,VALID,242,VALID,0.806127,
1999-09-18, 01:54:00,VALID,0,VALID,100,VALID,0,VALID,18.3717,VALID,238,VALID,1.09067,
1999-09-18, 01:55:00,VALID,0,VALID,100,VALID,-0.0169808,VALID,18.3816,VALID,235,VALID,0.995683,
1999-09-18, 01:56:00,VALID,0,VALID,100,VALID,0,VALID,18.3747,VALID,233,VALID,1.2168,
1999-09-18, 01:57:00,VALID,0,VALID,100,VALID,0,VALID,18.3747,VALID,233,VALID,0.827691,
1999-09-18, 01:58:01,VALID,0,VALID,100,VALID,0,VALID,18.3945,VALID,225,VALID,1.14727,
1999-09-18, 01:59:01,VALID,0,VALID,100,VALID,-0.0169808,VALID,18.3978,VALID,230,VALID,1.16191,
1999-09-18, 02:00:00,VALID,0.2,VALID,100,VALID,-0.0169808,VALID,18.3878,VALID,228,VALID,1.12068,
1999-09-18, 02:01:00,VALID,0,VALID,100,VALID,0,VALID,18.401,VALID,234,VALID,0.930304,
1999-09-18, 02:02:00,VALID,0,VALID,100,VALID,-0.0169808,VALID,18.3978,VALID,219,VALID,1.33552,
1999-09-18, 02:03:00,VALID,0,VALID,100,VALID,0,VALID,18.4042,VALID,227,VALID,1.07402,
1999-09-18, 02:04:00,VALID,0,VALID,100,VALID,-0.0339617,VALID,18.4042,VALID,225,VALID,1.07973,
1999-09-18, 02:05:00,VALID,0,VALID,100,VALID,-0.0169808,VALID,18.4139,VALID,224,VALID,1.18688,
1999-09-18, 02:06:00,VALID,0,VALID,100,VALID,-0.0509425,VALID,18.4109,VALID,226,VALID,1.16133,
1999-09-18, 02:07:00,VALID,0,VALID,100,VALID,-0.0169808,VALID,18.4239,VALID,210,VALID,1.48698,
1999-09-18, 02:08:00,VALID,0,VALID,100,VALID,-0.0339617,VALID,18.4437,VALID,217,VALID,1.40789,
1999-09-18, 02:09:00,VALID,0,VALID,100,VALID,-0.0169808,VALID,18.4333,VALID,211,VALID,1.39638,
1999-09-18, 02:10:01,VALID,0,VALID,100,VALID,-0.0169808,VALID,18.4396,VALID,212,VALID,0.83162,
1999-09-18, 02:11:00,VALID,0,VALID,100,VALID,-0.0339617,VALID,18.446,VALID,207,VALID,1.6684,
1999-09-18, 02:12:00,VALID,0,VALID,100,VALID,0,VALID,18.449,VALID,199,VALID,1.44076,
1999-09-18, 02:13:00,VALID,0,VALID,100,VALID,-0.0509425,VALID,18.4721,VALID,220,VALID,1.51875,
1999-09-18, 02:14:00,VALID,0,VALID,100,VALID,-0.0339617,VALID,18.4689,VALID,216,VALID,1.1834,
1999-09-18, 02:15:00,VALID,0,VALID,100,VALID,-0.0339617,VALID,18.4751,VALID,217,VALID,1.47492,
1999-09-18, 02:16:00,VALID,0,VALID,100,VALID,-0.0339617,VALID,18.4786,VALID,206,VALID,1.14782,
1999-09-18, 02:17:00,VALID,0,VALID,100,VALID,-0.0509425,VALID,18.4754,VALID,199,VALID,1.27175,
1999-09-18, 02:18:00,VALID,0,VALID,100,VALID,-0.0339617,VALID,18.4788,VALID,181,VALID,1.58242,
1999-09-18, 02:19:00,VALID,0,VALID,100,VALID,-0.0339617,VALID,18.4694,VALID,210,VALID,1.29167,
1999-09-18, 02:20:00,VALID,0,VALID,100,VALID,0,VALID,18.459,VALID,201,VALID,1.05839,
1999-09-18, 02:21:00,VALID,0,VALID,100,VALID,-0.0169808,VALID,18.456,VALID,194,VALID,0.904297,
1999-09-18, 02:22:00,VALID,0,VALID,100,VALID,-0.0849042,VALID,18.4504,VALID,220,VALID,1.19531,
1999-09-18, 02:23:00,VALID,0,VALID,100,VALID,-0.101885,VALID,18.4375,VALID,226,VALID,0.91838,
1999-09-18, 02:24:00,VALID,0,VALID,100,VALID,-0.118866,VALID,18.4405,VALID,211,VALID,0.702097,
1999-09-18, 02:25:00,VALID,0.2,VALID,100,VALID,-0.101885,VALID,18.4444,VALID,224,VALID,0.955181,
1999-09-18, 02:26:00,VALID,0,VALID,100,VALID,-0.101885,VALID,18.4373,VALID,221,VALID,1.16059,
1999-09-18, 02:27:00,VALID,0,VALID,100,VALID,-0.101885,VALID,18.4377,VALID,200,VALID,0.878255,
1999-09-18, 02:28:00,VALID,0,VALID,100,VALID,-0.0849042,VALID,18.447,VALID,192,VALID,0.923047,
1999-09-18, 02:29:00,VALID,0,VALID,100,VALID,-0.0849042,VALID,18.447,VALID,181,VALID,1.32305,
1999-09-18, 02:30:00,VALID,0,VALID,100,VALID,-0.0679233,VALID,18.437,VALID,196,VALID,1.1104,
1999-09-18, 02:31:01,VALID,0,VALID,100,VALID,-0.118866,VALID,18.4504,VALID,187,VALID,0.940584,
1999-09-18, 02:32:00,VALID,0,VALID,100,VALID,-0.0849042,VALID,18.4638,VALID,190,VALID,0.779561,
1999-09-18, 02:33:00,VALID,0,VALID,100,VALID,-0.0849042,VALID,18.4601,VALID,174,VALID,0.772656,
1999-09-18, 02:34:00,VALID,0,VALID,100,VALID,-0.101885,VALID,18.4567,VALID,175,VALID,0.946514,
1999-09-18, 02:35:00,VALID,0,VALID,100,VALID,-0.0849042,VALID,18.4601,VALID,210,VALID,0.88199,
1999-09-18, 02:36:00,VALID,0,VALID,100,VALID,-0.0849042,VALID,18.4634,VALID,197,VALID,0.969922,
1999-09-18, 02:37:00,VALID,0,VALID,100,VALID,-0.0339617,VALID,18.4687,VALID,184,VALID,0.732422,
1999-09-18, 02:38:00,VALID,0.2,VALID,100,VALID,0,VALID,18.465,VALID,202,VALID,0.620477,
1999-09-18, 02:39:00,VALID,0,VALID,100,VALID,0,VALID,18.4587,VALID,203,VALID,0.476357,
1999-09-18, 02:40:00,VALID,0,VALID,100,VALID,0,VALID,18.4624,VALID,204,VALID,0.602648,
1999-09-18, 02:41:00,VALID,0,VALID,100,VALID,-0.0339617,VALID,18.4555,VALID,204,VALID,0.621311,
1999-09-18, 02:42:00,VALID,0,VALID,100,VALID,0,VALID,18.4523,VALID,174,VALID,0.670573,
1999-09-18, 02:43:01,VALID,0,VALID,100,VALID,0,VALID,18.4523,VALID,202,VALID,0.454688,
1999-09-18, 02:44:00,VALID,0,VALID,100,VALID,-0.0169808,VALID,18.4594,VALID,209,VALID,0.240625,
1999-09-18, 02:45:00,VALID,0.2,VALID,100,VALID,0,VALID,18.446,VALID,208,VALID,0.531661,
1999-09-18, 02:46:00,VALID,0,VALID,100,VALID,-0.0169808,VALID,18.4396,VALID,214,VALID,0.311061,
1999-09-18, 02:47:00,VALID,0,VALID,100,VALID,0,VALID,18.4493,VALID,195,VALID,0.552154,
1999-09-18, 02:48:00,VALID,0,VALID,100,VALID,0.0169808,VALID,18.4324,VALID,201,VALID,0.551172,
1999-09-18, 02:49:00,VALID,0,VALID,100,VALID,0,VALID,18.4493,VALID,200,VALID,0.77504,
1999-09-18, 02:50:00,VALID,0,VALID,100,VALID,0,VALID,18.4361,VALID,207,VALID,0.902961,
1999-09-18, 02:51:00,VALID,0.2,VALID,100,VALID,0,VALID,18.4393,VALID,222,VALID,0.791992,
1999-09-18, 02:52:00,VALID,0,VALID,100,VALID,0.0169808,VALID,18.4326,VALID,233,VALID,1.01801,
1999-09-18, 02:53:00,VALID,0,VALID,100,VALID,0,VALID,18.4361,VALID,232,VALID,0.905428,
1999-09-18, 02:54:01,VALID,0,VALID,100,VALID,0.0169808,VALID,18.4458,VALID,231,VALID,0.90111,
1999-09-18, 02:55:00,VALID,0,VALID,100,VALID,0,VALID,18.4326,VALID,220,VALID,0.80366,
1999-09-18, 02:56:00,VALID,0,VALID,100,VALID,0.0169808,VALID,18.4458,VALID,209,VALID,0.868924,
1999-09-18, 02:57:00,VALID,0,VALID,100,VALID,0,VALID,18.4426,VALID,205,VALID,0.875434,
1999-09-18, 02:58:00,VALID,0.2,VALID,100,VALID,0.0169808,VALID,18.4396,VALID,206,VALID,0.746484,
1999-09-18, 02:59:00,VALID,0,VALID,100,VALID,0,VALID,18.4428,VALID,208,VALID,0.710156,
1999-09-18, 03:00:00,VALID,0,VALID,100,VALID,0.0339617,VALID,18.446,VALID,197,VALID,0.601974,
1999-09-18, 03:01:00,VALID,0,VALID,100,VALID,0.0169808,VALID,18.456,VALID,221,VALID,0.568873,
1999-09-18, 03:02:00,VALID,0,VALID,100,VALID,0.0509425,VALID,18.4525,VALID,204,VALID,0.862753,
1999-09-18, 03:03:00,VALID,0,VALID,100,VALID,0,VALID,18.4426,VALID,212,VALID,1.37207,
1999-09-18, 03:04:00,VALID,0,VALID,100,VALID,0.0169808,VALID,18.4525,VALID,208,VALID,0.773037,
1999-09-18, 03:05:00,VALID,0.2,VALID,100,VALID,0,VALID,18.4525,VALID,210,VALID,1.00082,
1999-09-18, 03:06:00,VALID,0,VALID,100,VALID,0.0169808,VALID,18.4525,VALID,200,VALID,0.658008,
1999-09-18, 03:07:00,VALID,0,VALID,100,VALID,0,VALID,18.4527,VALID,211,VALID,0.738715,
1999-09-18, 03:08:00,VALID,0,VALID,100,VALID,-0.0169808,VALID,18.443,VALID,187,VALID,0.815584,
1999-09-18, 03:09:00,VALID,0,VALID,100,VALID,0,VALID,18.4296,VALID,184,VALID,0.871916,
1999-09-18, 03:10:00,VALID,0,VALID,100,VALID,0.0169808,VALID,18.4169,VALID,193,VALID,0.834087,
1999-09-18, 03:11:00,VALID,0,VALID,100,VALID,0,VALID,18.4137,VALID,173,VALID,0.613064,
1999-09-18, 03:12:00,VALID,0,VALID,100,VALID,0,VALID,18.3943,VALID,176,VALID,0.721788,
1999-09-18, 03:13:00,VALID,0,VALID,100,VALID,0.0679233,VALID,18.3878,VALID,146,VALID,0.697852,
1999-09-18, 03:14:00,VALID,0,VALID,100,VALID,0.0169808,VALID,18.3844,VALID,135,VALID,0.766211,
1999-09-18, 03:15:00,VALID,0.2,VALID,100,VALID,0.0169808,VALID,18.3809,VALID,142,VALID,0.839844,
1999-09-18, 03:16:01,VALID,0,VALID,100,VALID,0,VALID,18.3682,VALID,166,VALID,0.837993,
1999-09-18, 03:17:00,VALID,0,VALID,100,VALID,0,VALID,18.3555,VALID,143,VALID,0.615709,
1999-09-18, 03:18:00,VALID,0,VALID,100,VALID,0,VALID,18.3391,VALID,169,VALID,0.601563,
1999-09-18, 03:19:00,VALID,0,VALID,100,VALID,0.0169808,VALID,18.3389,VALID,164,VALID,0.697115,
1999-09-18, 03:20:00,VALID,0,VALID,100,VALID,0,VALID,18.3394,VALID,181,VALID,0.779811,
1999-09-18, 03:21:00,VALID,0,VALID,100,VALID,0,VALID,18.3357,VALID,199,VALID,0.861523,
1999-09-18, 03:22:00,VALID,0,VALID,100,VALID,0,VALID,18.3327,VALID,218,VALID,0.681424,
1999-09-18, 03:23:00,VALID,0,VALID,100,VALID,0.0169808,VALID,18.3424,VALID,203,VALID,0.60773,
1999-09-18, 03:24:00,VALID,0,VALID,100,VALID,0,VALID,18.3424,VALID,194,VALID,0.762747,
1999-09-18, 03:25:00,VALID,0,VALID,100,VALID,0.0169808,VALID,18.3389,VALID,194,VALID,0.722862,
1999-09-18, 03:26:01,VALID,0,VALID,100,VALID,0,VALID,18.3456,VALID,184,VALID,0.872179,
1999-09-18, 03:27:00,VALID,0,VALID,100,VALID,0,VALID,18.3488,VALID,180,VALID,0.453125,
1999-09-18, 03:28:00,VALID,0,VALID,100,VALID,0,VALID,18.3391,VALID,157,VALID,0.597461,
1999-09-18, 03:29:00,VALID,0,VALID,100,VALID,0.0169808,VALID,18.3525,VALID,156,VALID,0.576953,
1999-09-18, 03:30:00,VALID,0,VALID,100,VALID,0.0169808,VALID,18.3461,VALID,169,VALID,0.477385,
1999-09-18, 03:31:00,VALID,0,VALID,100,VALID,0.0169808,VALID,18.3294,VALID,181,VALID,0.353002,
1999-09-18, 03:32:00,VALID,0,VALID,100,VALID,0.0169808,VALID,18.3361,VALID,194,VALID,0.773015,
1999-09-18, 03:33:00,VALID,0,VALID,100,VALID,-0.0169808,VALID,18.32,VALID,202,VALID,0.663867,
1999-09-18, 03:34:00,VALID,0,VALID,100,VALID,0,VALID,18.3267,VALID,189,VALID,0.665665,
1999-09-18, 03:35:00,VALID,0,VALID,100,VALID,0,VALID,18.31,VALID,178,VALID,0.937089,
1999-09-18, 03:36:00,VALID,0,VALID,100,VALID,0.0169808,VALID,18.3133,VALID,153,VALID,0.894141,
1999-09-18, 03:37:00,VALID,0,VALID,100,VALID,-0.0679233,VALID,18.3149,VALID,163,VALID,0.682075,
1999-09-18, 03:38:00,VALID,0,VALID,100,VALID,-0.101885,VALID,18.3087,VALID,163,VALID,0.748355,
1999-09-18, 03:39:00,VALID,0,VALID,100,VALID,-0.101885,VALID,18.2893,VALID,154,VALID,0.534128,
1999-09-18, 03:40:00,VALID,0,VALID,100,VALID,-0.0849042,VALID,18.2828,VALID,129,VALID,0.542969,
1999-09-18, 03:41:00,VALID,0,VALID,100,VALID,-0.101885,VALID,18.2793,VALID,108,VALID,0.948134,
1999-09-18, 03:42:00,VALID,0,VALID,100,VALID,-0.0849042,VALID,18.2692,VALID,108,VALID,1.12435,
1999-09-18, 03:43:00,VALID,0,VALID,100,VALID,-0.0509425,VALID,18.2826,VALID,123,VALID,0.888477,
1999-09-18, 03:44:00,VALID,0,VALID,100,VALID,-0.0509425,VALID,18.2886,VALID,128,VALID,0.885156,
1999-09-18, 03:45:00,VALID,0,VALID,100,VALID,-0.0339617,VALID,18.2953,VALID,122,VALID,0.877262,
1999-09-18, 03:46:00,VALID,0,VALID,100,VALID,-0.0849042,VALID,18.2953,VALID,100,VALID,0.941817,
1999-09-18, 03:47:00,VALID,0,VALID,100,VALID,-0.0339617,VALID,18.2828,VALID,95,VALID,1.01499,
1999-09-18, 03:48:00,VALID,0.2,VALID,100,VALID,-0.0849042,VALID,18.2602,VALID,96,VALID,0.851367,
1999-09-18, 03:49:01,VALID,0,VALID,100,VALID,-0.101885,VALID,18.2528,VALID,95,VALID,0.687099,
1999-09-18, 03:50:00,VALID,0,VALID,100,VALID,-0.0509425,VALID,18.2602,VALID,86,VALID,0.841283,
1999-09-18, 03:51:00,VALID,0,VALID,100,VALID,-0.0509425,VALID,18.2438,VALID,89,VALID,1.04766,
1999-09-18, 03:52:00,VALID,0,VALID,100,VALID,-0.0849042,VALID,18.2373,VALID,88,VALID,0.875651,
1999-09-18, 03:53:00,VALID,0,VALID,100,VALID,-0.0679233,VALID,18.2403,VALID,110,VALID,0.667352,
1999-09-18, 03:54:00,VALID,0,VALID,100,VALID,-0.101885,VALID,18.2371,VALID,108,VALID,0.42537,
1999-09-18, 03:55:00,VALID,0,VALID,100,VALID,-0.0679233,VALID,18.2338,VALID,116,VALID,0.0668174,
1999-09-18, 03:56:00,VALID,0,VALID,100,VALID,-0.101885,VALID,18.2341,VALID,129,VALID,0.279297,
1999-09-18, 03:57:00,VALID,0,VALID,100,VALID,-0.0849042,VALID,18.2375,VALID,143,VALID,0.321615,
1999-09-18, 03:58:00,VALID,0,VALID,100,VALID,-0.0679233,VALID,18.2375,VALID,192,VALID,0.468164,
1999-09-18, 03:59:01,VALID,0,VALID,100,VALID,-0.101885,VALID,18.2278,VALID,214,VALID,0.65,
1999-09-18, 04:00:01,VALID,0,VALID,100,VALID,-0.101885,VALID,18.2211,VALID,227,VALID,1.00473,
1999-09-18, 04:01:00,VALID,0,VALID,100,VALID,-0.101885,VALID,18.2119,VALID,231,VALID,1.48047,
1999-09-18, 04:02:00,VALID,0,VALID,100,VALID,-0.101885,VALID,18.2054,VALID,228,VALID,1.31187,
1999-09-18, 04:03:00,VALID,0,VALID,100,VALID,-0.101885,VALID,18.1854,VALID,229,VALID,1.35,
1999-09-18, 04:04:00,VALID,0,VALID,100,VALID,-0.0509425,VALID,18.1824,VALID,235,VALID,1.38101,
1999-09-18, 04:05:00,VALID,0,VALID,100,VALID,-0.0849042,VALID,18.199,VALID,231,VALID,1.27961,
1999-09-18, 04:06:00,VALID,0,VALID,100,VALID,-0.0849042,VALID,18.2211,VALID,235,VALID,1.59785,
1999-09-18, 04:07:00,VALID,0,VALID,100,VALID,-0.0339617,VALID,18.2426,VALID,228,VALID,1.19444,
1999-09-18, 04:08:00,VALID,0,VALID,100,VALID,0.0339617,VALID,18.2816,VALID,216,VALID,1.27775,
1999-09-18, 04:09:00,VALID,0,VALID,100,VALID,0,VALID,18.2911,VALID,218,VALID,1.44449,
1999-09-18, 04:10:01,VALID,0,VALID,100,VALID,0.0849042,VALID,18.2909,VALID,217,VALID,1.39926,
1999-09-18, 04:11:01,VALID,0,VALID,100,VALID,0.0169808,VALID,18.3001,VALID,239,VALID,0.820964,
1999-09-18, 04:12:00,VALID,0,VALID,100,VALID,0.0679233,VALID,18.3299,VALID,214,VALID,1.06424,
1999-09-18, 04:13:00,VALID,0,VALID,100,VALID,0.0509425,VALID,18.3331,VALID,213,VALID,1.30762,
1999-09-18, 04:14:00,VALID,0,VALID,100,VALID,0.0339617,VALID,18.3424,VALID,209,VALID,0.949805,
1999-09-18, 04:15:00,VALID,0,VALID,100,VALID,0.0509425,VALID,18.3359,VALID,215,VALID,0.918586,